Location: Cassano d�Adda
(45.5333°N, 9.5167°E)
Time: 00:49:06
(UTC+00:00)

Cosmos 1782 Rocket - Pass Details

Date: 08 December 2019
Orbit: 607 x 632 km, 82.5° (Epoch: 27 January)

Event Time Altitude Azimuth Distance (km) Brightness Sun altitude
Rises 17:41:19 0° 352° (N) 2,891 7.0 -20.7°
Reaches altitude 10° 17:43:34 10° 354° (N) 1,978 6.1 -21.1°
Maximum altitude 17:47:56 76° 80° (E) 634 3.3 -21.8°
Drops below altitude 10° 17:52:15 10° 167° (SSE) 1,953 6.1 -22.6°
Sets 17:54:27 0° 169° (SSE) 2,851 7.0 -22.9°
